SCP
0 0 0 0 0 0 0 0 0 0 0 0 0 0 0 0 0 0 0 0 0 0 0 0 0 0 0 0 0 0 0 0 0 0 0 0 0 0 0 0 0 0 0
0 0 0 0 0 0 0 0 0 0 0 0 0 0 0 0 0 0 0 0 0 0 0 0 0 0 0 0 0 0 0 0 0 0 0 0 0 0 0 0 0 0 0
0 0 0 0 0 0 0 0 0 0 0 0 0 0 0 0 0 0 0 0 0 0 0 0 0 0 0 0 0 0 0 0 0 0 0 0 0 0 0 0 0 0 0
0 0 0 0 0 0 0 0 0 0 0 0 0 0 0 0 0 0 0 0 0 0 0 0 0 0 0 0 0 0 0 0 0 0 0 0 0 0 0 0 0 0 0
0 0 0 0 0 0 0 0 0 0 0 0 0 0 0 0 0 0 0 0 0 0 0 0 0 0 0 0 0 0 0 0 0 0 0 0 0 0 0 0 0 0 0
0 0 0 0 0 0 0 0 0 0 0 0 0 0 0 0 0 0 0 0 0 0 0 0 0 0 0 0 0 0 0 0 0 0 0 0 0 0 0 0 0 0 0
0 0 0 0 0 0 0 0 0 0 0 0 0 0 0 0 0 0 0 0 0 0 0 0 0 0 0 0 0 0 0 0 0 0 0 0 0 0 0 0 0 0 0
0 0 0 0 0 0 0 0 0 0 0 0 0 0 0 0 0 0 0 0 0 0 0 0 0 0 0 0 0 0 0 0 0 0 0 0 0 0 0 1 1 1 0
0 0 0 0 0 0 0 0 0 0 0 0 0 0 0 0 0 0 0 0 0 0 0 0 0 0 0 0 0 0 0 0 0 0 0 0 0 0 0 1 1 1 1
0 0 0 0 0 0 0 0 0 0 0 0 0 0 0 0 0 0 0 0 0 0 0 0 0 0 0 0 0 0 0 0 0 0 0 0 0 0 0 0 1 1 1
0 0 0 0 0 0 0 0 0 0 0 0 0 0 0 0 0 0 0 0 0 0 0 0 0 0 0 0 0 0 0 0 0 0 0 0 0 0 0 0 0 0 0
0 0 0 0 0 0 0 0 0 0 0 0 0 0 0 0 0 0 0 0 0 0 0 0 0 0 0 0 0 0 0 0 0 0 0 0 0 0 0 0 0 0 0
0 0 0 0 0 0 0 0 0 0 0 0 0 0 0 0 0 0 0 0 0 0 0 0 0 0 0 0 0 0 0 0 0 0 0 0 0 0 0 0 0 0 0
0 0 0 0 0 0 0 0 0 0 0 0 0 0 0 0 0 0 0 0 0 0 0 0 0 0 0 0 0 0 0 0 0 0 0 0 0 0 0 0 0 0 0
0 0 0 0 0 0 0 0 0 0 0 0 0 0 0 0 0 0 0 0 0 0 0 0 0 0 0 0 0 0 0 0 0 0 0 0 0 0 0 0 0 0 0
0 0 0 0 0 0 0 0 0 0 0 0 0 0 0 0 0 0 0 0 0 0 0 0 0 0 0 0 0 0 0 0 0 0 0 0 0 0 0 0 0 0 0
0 0 0 0 0 0 0 0 0 0 0 0 0 0 0 0 0 0 0 0 0 0 0 0 0 0 0 0 0 0 0 0 0 0 0 0 0 0 0 0 0 0 0
0 0 0 0 0 0 0 0 0 0 0 0 0 0 0 0 0 0 0 0 0 0 0 0 0 0 0 0 0 0 0 0 0 0 0 0 0 0 0 0 0 0 0
0 0 0 0 0 0 0 0 0 0 0 0 0 0 0 0 0 0 0 0 0 0 0 0 0 0 0 0 0 0 0 0 0 0 0 0 0 0 0 0 0 0 0
0 0 0 0 0 0 0 0 0 0 0 0 0 0 0 0 0 0 0 0 0 0 0 0 0 0 0 0 0 0 0 0 0 0 0 0 0 0 0 0 0 0 0
0 0 0 0 0 0 0 0 0 0 0 0 0 0 0 0 0 0 0 0 0 0 0 0 0 0 0 0 0 0 0 0 0 0 0 0 0 0 0 0 0 0 0
0 0 0 0 0 0 0 0 0 0 0 0 0 0 0 0 0 0 0 0 0 0 0 0 0 0 0 0 0 0 0 0 0 0 0 0 0 0 0 0 0 0 0
0 0 0 0 0 0 0 0 0 0 0 0 0 0 0 0 0 0 0 0 0 0 0 0 0 0 0 0 0 0 0 0 0 0 0 0 0 0 0 0 0 0 0
0 0 0 0 0 0 0 0 0 0 0 0 0 0 0 0 0 0 0 0 0 0 0 0 0 0 0 0 0 0 0 0 0 0 0 0 0 0 0 0 0 0 0
0 0 0 0 0 0 0 0 0 0 0 0 0 0 0 0 0 0 0 0 0 0 0 0 0 0 0 0 0 0 0 0 0 0 0 0 0 0 0 0 0 0 0
0 0 0 0 0 0 0 0 0 0 0 0 0 0 0 0 0 0 0 0 0 0 0 0 0 0 0 0 0 0 0 0 0 0 -0 -0 -0 -0 0 0 0 0 0
Wind_Speed
2 4 7 8 7 8 8 7 6 2 4 3 2 2 4 4 4 5 6 6 7 8 8 8 9 8 9 11 10 9 10 9 4 4 10 11 10 12 12 10 11 13 11
5 7 8 8 9 9 9 8 7 6 1 2 2 2 1 2 3 2 4 6 7 8 8 9 10 9 9 11 11 9 9 9 7 7 7 8 11 12 10 11 12 13 11
5 7 8 9 9 9 8 8 9 9 8 4 2 2 2 2 3 2 3 5 7 8 9 11 10 10 9 10 11 10 12 13 11 11 9 6 7 4 6 7 9 10 10
6 6 7 7 8 7 7 9 9 8 8 8 7 6 4 3 3 3 3 5 5 6 7 9 10 10 9 10 12 12 11 13 12 10 12 16 12 9 12 10 8 8 10
5 5 5 5 6 7 8 8 8 10 9 9 8 7 5 3 3 3 5 6 7 6 6 6 7 8 8 10 12 12 11 11 12 12 11 11 12 16 15 14 14 11 10
5 4 4 5 6 7 7 8 9 10 10 10 10 9 8 7 8 9 8 7 6 6 9 10 8 7 7 8 10 11 12 12 12 12 12 11 10 10 13 14 14 16 14
6 5 4 4 5 6 7 7 8 9 9 9 9 9 8 8 8 7 5 5 5 5 9 9 9 8 8 9 9 9 10 12 13 13 12 12 13 13 13 16 16 18 14
6 5 4 4 4 6 7 8 9 8 9 9 9 9 8 6 5 5 5 5 5 5 7 9 9 10 10 10 9 7 8 10 11 13 12 11 12 12 13 14 16 19 17
6 5 4 4 5 7 7 7 8 9 9 8 8 8 7 7 7 6 6 6 7 8 10 10 10 10 10 10 10 9 10 9 10 10 11 10 11 10 10 11 13 17 20
5 4 4 4 6 7 6 7 8 7 6 7 7 6 7 7 7 8 9 9 10 10 11 11 12 12 12 12 11 10 12 12 11 10 12 12 10 10 10 10 10 12 16
6 5 3 6 7 7 6 7 6 7 7 7 6 7 6 6 6 6 8 9 10 10 11 11 12 12 12 12 12 12 13 13 13 12 13 13 13 11 10 10 11 11 13
6 5 6 7 6 6 6 6 6 6 6 6 5 6 6 8 9 10 11 11 11 12 12 12 12 13 13 13 12 13 12 12 14 14 14 13 12 13 13 11 12 13 14
6 6 6 6 5 5 6 6 6 6 5 5 6 7 8 9 9 10 11 12 13 13 14 14 14 14 14 13 14 12 12 13 13 13 12 12 13 14 13 13 13 13 13
7 7 6 5 5 5 6 6 5 5 5 6 7 7 8 8 9 10 11 12 13 13 14 15 15 15 15 15 14 14 15 14 14 11 10 10 11 14 15 14 14 15 15
8 7 6 5 4 5 5 4 5 6 7 7 6 6 7 8 9 11 12 13 13 13 14 15 15 15 14 14 18 19 18 18 14 9 9 9 12 17 16 16 16 16 14
7 7 6 5 4 4 3 4 5 5 5 5 5 6 8 10 11 12 13 13 14 14 14 15 15 15 14 21 27 25 20 16 12 12 14 14 15 15 22 24 23 22 21
7 6 5 4 3 3 4 4 4 5 5 5 5 8 9 11 11 12 12 13 14 14 14 14 14 15 16 23 28 27 15 14 13 14 15 15 13 15 18 22 24 24 26
6 5 3 3 3 3 3 3 4 4 4 4 6 9 10 10 11 11 11 12 12 12 13 14 14 14 16 25 26 23 15 14 13 13 14 16 12 15 21 20 20 21 20
6 4 3 3 3 2 3 4 4 4 6 7 8 9 9 10 11 12 12 12 12 13 12 13 14 15 16 22 24 23 14 13 15 14 15 16 16 21 28 22 21 23 21
5 4 3 3 3 3 4 5 6 7 7 7 8 8 8 9 11 11 11 11 12 13 13 14 14 16 16 19 26 25 13 13 13 13 14 20 23 29 32 24 20 20 20
6 5 4 3 3 4 5 5 6 6 7 7 7 7 7 8 10 10 11 12 12 12 12 13 13 13 14 18 25 28 15 12 12 12 11 13 27 33 33 28 17 19 22
5 4 3 3 3 4 5 5 6 6 6 6 7 8 8 8 9 10 11 11 12 12 12 13 12 10 12 17 23 27 25 23 16 13 12 16 30 33 30 23 23 28 22
5 3 2 2 3 3 3 4 6 6 6 6 8 8 9 9 9 9 11 11 10 10 10 11 11 11 11 13 21 25 27 25 19 14 21 27 29 26 20 24 27 21 12
3 2 2 3 3 3 4 5 6 6 6 7 9 9 8 10 9 8 9 9 9 10 11 11 12 12 12 11 11 12 14 18 16 15 18 22 21 19 19 18 14 10 10
3 2 2 3 4 5 5 6 6 6 7 7 8 8 8 9 9 10 10 11 11 12 14 13 12 13 13 16 23 21 17 14 17 19 11 11 12 12 12 12 12 11 11
2 1 2 3 4 5 6 6 6 6 6 8 8 8 9 8 9 10 13 17 20 24 25 25 21 16 20 27 30 29 27 25 26 15 10 10 12 12 13 13 13 13 13
Wind_Direction
49 26 18 9 12 16 23 24 26 318 184 158 165 188 225 232 234 233 235 226 225 226 225 237 243 231 234 242 236 234 244 248 225 242 263 259 249 250 250 249 248 248 245
40 22 17 14 17 18 18 20 18 9 27 154 152 159 194 234 244 243 245 244 241 238 235 240 245 240 239 247 244 236 244 250 218 226 260 271 266 248 242 240 244 248 247
55 26 16 13 14 21 16 24 20 17 18 31 91 81 64 10 359 338 296 271 258 255 251 251 250 247 237 242 242 232 235 249 244 222 229 250 254 285 263 244 243 244 242
59 41 27 21 19 15 20 29 26 28 26 31 48 52 48 19 340 321 320 312 295 280 269 265 262 256 247 246 246 242 235 242 250 240 229 239 251 258 274 260 248 241 243
82 63 42 34 27 20 25 24 27 31 27 39 50 54 50 24 343 352 358 355 349 349 339 317 296 279 267 261 259 255 246 243 245 248 248 243 248 250 257 268 268 257 245
112 94 60 42 32 27 29 28 33 29 24 31 34 39 37 24 21 10 9 358 352 354 -0 355 348 330 309 293 283 274 267 262 257 256 255 255 249 247 251 255 259 263 263
138 117 96 67 45 36 32 31 40 32 25 32 32 31 33 35 32 18 8 1 356 350 349 349 349 346 338 329 317 302 290 283 281 278 273 268 265 267 268 266 269 269 268
144 139 136 107 62 43 35 37 44 37 27 29 27 28 30 29 24 12 3 358 348 334 335 338 339 336 334 332 329 318 306 299 294 290 287 286 282 276 271 274 281 281 277
164 152 130 91 61 50 45 51 52 41 30 27 28 28 25 23 16 7 5 356 348 342 340 336 331 327 324 323 321 317 311 307 300 295 291 290 292 289 282 276 273 279 286
162 138 121 94 73 69 58 52 50 44 29 25 24 22 18 15 9 5 0 353 345 340 336 334 330 325 322 320 318 314 312 308 305 304 303 298 296 296 291 283 279 275 280
161 155 120 87 84 70 59 53 44 34 24 17 13 15 11 6 4 1 352 345 340 337 334 330 326 322 320 319 316 313 311 312 313 312 308 304 304 304 302 298 295 290 287
156 127 105 99 86 76 65 53 39 29 14 5 6 10 11 8 5 359 352 347 343 340 337 334 330 328 324 321 316 310 314 320 316 311 308 309 313 312 309 305 300 298 295
133 118 109 104 97 82 67 52 36 18 5 5 10 13 11 3 356 350 347 344 341 338 337 335 331 327 324 323 316 310 318 315 308 304 304 308 311 309 309 309 307 304 298
148 134 121 112 95 77 64 47 27 11 7 11 11 9 360 353 347 344 344 341 338 336 335 333 329 325 324 324 319 324 319 312 305 298 295 300 308 310 310 308 306 304 300
160 141 132 120 101 82 65 49 26 15 11 7 5 354 346 347 345 344 341 337 334 333 331 329 327 324 324 322 323 325 320 313 302 292 292 296 301 298 307 316 313 312 311
153 139 135 123 101 89 73 50 27 10 4 1 352 347 352 350 347 342 338 335 333 330 329 328 324 324 324 320 321 322 319 316 317 319 320 316 312 313 324 315 312 313 310
155 147 133 129 124 101 64 40 12 0 360 355 352 355 352 346 340 336 332 329 326 323 323 320 321 319 317 317 319 321 330 325 321 323 323 316 315 326 320 315 315 314 307
136 125 128 97 73 52 45 40 19 358 348 353 355 351 346 338 332 329 325 321 320 322 318 317 318 315 314 313 319 332 332 321 318 318 316 310 315 319 317 317 314 310 305
121 132 126 108 93 46 21 34 11 357 359 355 348 341 336 331 329 325 322 319 318 315 312 315 315 312 311 314 324 330 327 322 321 319 313 310 312 313 318 316 309 304 300
117 113 99 91 74 32 27 27 5 358 348 336 328 326 324 322 319 315 312 313 313 311 313 310 309 309 310 313 320 324 321 314 311 309 310 312 313 316 316 312 303 300 308
135 121 119 108 66 40 29 14 354 337 320 315 312 311 312 314 312 312 312 310 308 307 306 304 304 303 304 312 318 320 318 311 313 315 313 310 312 313 310 305 301 311 316
121 115 104 76 53 34 24 351 327 310 309 309 309 310 311 310 311 308 306 307 307 308 308 305 303 305 307 310 313 315 316 323 323 315 310 309 312 309 309 312 319 320 320
117 117 115 49 26 21 8 325 305 306 310 308 306 307 308 306 303 305 308 308 308 306 305 305 306 307 306 305 307 311 319 324 319 313 314 319 318 319 321 321 321 322 315
142 152 72 10 349 340 321 300 298 307 311 307 304 303 302 308 309 306 304 305 307 306 304 304 303 301 298 297 297 306 313 317 319 317 319 320 324 322 317 315 314 313 308
152 82 23 337 315 313 307 302 302 309 306 298 296 301 303 305 308 307 306 303 299 301 306 306 303 301 300 301 311 317 318 320 325 328 323 321 321 316 313 312 315 315 313
105 19 321 303 294 296 295 296 293 287 290 304 308 307 308 305 307 308 306 302 304 310 313 312 309 305 305 310 315 318 321 326 334 329 315 318 316 313 315 318 317 317 318